When you browse on this site, cookies collect data to enhance your experience and personalize the content and advertising you see.
Visit our Privacy Policy to learn more. By continuing to use the site, you agree to this use of cookies and data.
  • In Romania
  • List of Countries
  • For 7 days
  • Water Temperature
  • Satellite Maps
  • Weather Map
  • Weather Widgets
  • user-avatar
    Login

    Hourly Weather Les Mureaux

    Today, 20 April, Saturday

    Time Temperature Precipitation Wind Pressure Humidity
    00:00 +14°C° 0 mm 3 mps 761 mmHg 74%
    01:00 +14°C° 0 mm 3 mps 761 mmHg 74%
    02:00 +13°C° 0 mm 3 mps 761 mmHg 75%
    03:00 +13°C° 0 mm 3 mps 761 mmHg 75%
    04:00 +13°C° 0 mm 3 mps 761 mmHg 76%
    05:00 +14°C° 0 mm 2 mps 761 mmHg 77%
    06:00 +14°C° 0 mm 2 mps 762 mmHg 77%
    07:00 +16°C° 0 mm 2 mps 762 mmHg 72%
    08:00 +18°C° 0 mm 3 mps 762 mmHg 68%
    09:00 +19°C° 0 mm 3 mps 762 mmHg 63%
    10:00 +21°C° 0 mm 3 mps 761 mmHg 54%
    11:00 +23°C° 0 mm 4 mps 761 mmHg 46%
    12:00 +25°C° 0 mm 4 mps 761 mmHg 37%
    13:00 +25°C° 0 mm 4 mps 761 mmHg 37%
    14:00 +25°C° 0 mm 4 mps 761 mmHg 37%
    15:00 +25°C° 0 mm 5 mps 760 mmHg 37%
    16:00 +23°C° 0 mm 4 mps 760 mmHg 43%
    17:00 +22°C° 0 mm 4 mps 760 mmHg 48%
    18:00 +21°C° 0 mm 3 mps 760 mmHg 54%
    19:00 +20°C° 0 mm 3 mps 760 mmHg 58%
    20:00 +19°C° 0 mm 3 mps 760 mmHg 61%
    21:00 +17°C° 0 mm 3 mps 760 mmHg 65%
    22:00 +17°C° 0 mm 3 mps 760 mmHg 67%
    23:00 +16°C° 0 mm 3 mps 760 mmHg 70%

    Tomorrow, 21 April, Sunday

    Time Temperature Precipitation Wind Pressure Humidity
    00:00 +15°C° 0 mm 2 mps 759 mmHg 73%
    01:00 +15°C° 0 mm 2 mps 759 mmHg 74%
    02:00 +14°C° 0 mm 2 mps 758 mmHg 75%
    03:00 +14°C° 0 mm 2 mps 758 mmHg 77%
    04:00 +14°C° 0 mm 2 mps 758 mmHg 76%
    05:00 +13°C° 0 mm 2 mps 758 mmHg 76%
    06:00 +13°C° 0 mm 2 mps 757 mmHg 75%
    07:00 +15°C° 0 mm 2 mps 757 mmHg 67%
    08:00 +17°C° 0 mm 2 mps 757 mmHg 60%
    09:00 +19°C° 0 mm 3 mps 757 mmHg 52%
    10:00 +21°C° 0 mm 3 mps 756 mmHg 47%
    11:00 +22°C° 0 mm 3 mps 756 mmHg 42%
    12:00 +24°C° 0 mm 3 mps 756 mmHg 36%
    13:00 +23°C° 0 mm 4 mps 755 mmHg 37%
    14:00 +23°C° 0 mm 4 mps 754 mmHg 37%
    15:00 +25°C° 0 mm 4 mps 754 mmHg 38%
    16:00 +24°C° 0 mm 3 mps 753 mmHg 42%
    17:00 +22°C° 0 mm 3 mps 753 mmHg 47%
    18:00 +21°C° 0 mm 3 mps 753 mmHg 51%
    19:00 +19°C° 0 mm 2 mps 752 mmHg 53%
    20:00 +18°C° 0 mm 2 mps 752 mmHg 54%
    21:00 +17°C° 0 mm 2 mps 752 mmHg 56%
    22:00 +16°C° 0 mm 2 mps 752 mmHg 59%
    23:00 +15°C° 0 mm 2 mps 751 mmHg 61%

    Day after tomorrow, 22 April, Monday

    Time Temperature Precipitation Wind Pressure Humidity
    00:00 +15°C° 0 mm 1 mps 751 mmHg 64%
    01:00 +14°C° 0 mm 2 mps 750 mmHg 65%
    02:00 +14°C° 0 mm 2 mps 750 mmHg 66%
    03:00 +14°C° 0 mm 2 mps 749 mmHg 67%
    04:00 +13°C° 0 mm 2 mps 749 mmHg 69%
    05:00 +13°C° 0 mm 2 mps 748 mmHg 71%
    06:00 +13°C° 0 mm 2 mps 748 mmHg 73%
    07:00 +15°C° 0 mm 2 mps 748 mmHg 69%
    08:00 +17°C° 0 mm 2 mps 747 mmHg 65%
    09:00 +19°C° 0 mm 2 mps 747 mmHg 62%
    10:00 +20°C° 0 mm 2 mps 747 mmHg 58%
    11:00 +21°C° 0 mm 2 mps 746 mmHg 54%
    12:00 +24°C° 0 mm 3 mps 746 mmHg 50%
    13:00 +24°C° 0 mm 2 mps 745 mmHg 48%
    14:00 +24°C° 0 mm 2 mps 744 mmHg 46%
    15:00 +25°C° 0 mm 2 mps 744 mmHg 44%
    16:00 +24°C° 0 mm 2 mps 743 mmHg 48%
    17:00 +23°C° 0 mm 1 mps 743 mmHg 51%
    18:00 +22°C° 0 mm 1 mps 743 mmHg 55%
    19:00 +21°C° 0 mm 1 mps 743 mmHg 59%
    20:00 +20°C° 0 mm 1 mps 743 mmHg 63%
    21:00 +18°C° 0 mm 1 mps 743 mmHg 68%
    22:00 +18°C° 0 mm 1 mps 742 mmHg 71%
    23:00 +16°C° 0 mm 1 mps 742 mmHg 75%

    23 April, Tuesday

    Time Temperature Precipitation Wind Pressure Humidity
    00:00 +16°C° 0 mm 1 mps 742 mmHg 78%
    01:00 +15°C° 0 mm 1 mps 741 mmHg 80%
    02:00 +14°C° 0 mm 1 mps 741 mmHg 82%
    03:00 +14°C° 0 mm 1 mps 741 mmHg 84%
    04:00 +14°C° 0 mm 1 mps 740 mmHg 84%
    05:00 +14°C° 0 mm 1 mps 740 mmHg 83%
    06:00 +14°C° 0 mm 2 mps 740 mmHg 83%
    07:00 +15°C° 0 mm 2 mps 740 mmHg 76%
    08:00 +18°C° 0 mm 1 mps 740 mmHg 69%
    09:00 +20°C° 0 mm 1 mps 740 mmHg 62%
    10:00 +21°C° 0 mm 1 mps 740 mmHg 59%
    11:00 +21°C° 0 mm 2 mps 740 mmHg 55%
    12:00 +23°C° 0 mm 2 mps 740 mmHg 52%
    13:00 +23°C° 0.1 mm 1 mps 739 mmHg 51%
    14:00 +24°C° 0.1 mm 1 mps 739 mmHg 50%
    15:00 +24°C° 0.1 mm 1 mps 739 mmHg 50%
    16:00 +23°C° 0.1 mm 1 mps 738 mmHg 55%
    17:00 +22°C° 0.1 mm 1 mps 738 mmHg 59%
    18:00 +21°C° 0.1 mm 1 mps 738 mmHg 64%
    19:00 +20°C° 0.2 mm 1 mps 738 mmHg 68%
    20:00 +19°C° 0.2 mm 1 mps 739 mmHg 71%
    21:00 +18°C° 0.2 mm 1 mps 739 mmHg 75%
    22:00 +18°C° 0.7 mm 1 mps 739 mmHg 76%
    23:00 +18°C° 0.7 mm 1 mps 739 mmHg 78%

    24 April, Wednesday

    Time Temperature Precipitation Wind Pressure Humidity
    00:00 +16°C° 0.7 mm 1 mps 739 mmHg 80%
    01:00 +16°C° 0.1 mm 2 mps 739 mmHg 82%
    02:00 +15°C° 0.1 mm 2 mps 739 mmHg 84%
    03:00 +15°C° 0.1 mm 2 mps 739 mmHg 86%
    04:00 +14°C° 0.3 mm 3 mps 739 mmHg 87%
    05:00 +14°C° 0.3 mm 4 mps 739 mmHg 88%
    06:00 +14°C° 0.3 mm 5 mps 740 mmHg 88%
    07:00 +14°C° 0.6 mm 5 mps 740 mmHg 85%
    08:00 +14°C° 0.6 mm 5 mps 741 mmHg 82%
    09:00 +13°C° 0.6 mm 5 mps 742 mmHg 79%
    10:00 +14°C° 0.1 mm 5 mps 742 mmHg 73%
    11:00 +15°C° 0.1 mm 5 mps 742 mmHg 67%
    12:00 +16°C° 0.1 mm 5 mps 742 mmHg 61%
    13:00 +15°C° 0.3 mm 5 mps 742 mmHg 64%
    14:00 +14°C° 0.3 mm 5 mps 742 mmHg 66%
    15:00 +14°C° 0.3 mm 5 mps 742 mmHg 69%
    16:00 +13°C° 0.1 mm 5 mps 742 mmHg 68%
    17:00 +13°C° 0.1 mm 5 mps 743 mmHg 66%
    18:00 +13°C° 0.1 mm 5 mps 743 mmHg 65%
    19:00 +13°C° 0 mm 5 mps 743 mmHg 65%
    20:00 +13°C° 0 mm 5 mps 743 mmHg 64%
    21:00 +13°C° 0 mm 5 mps 743 mmHg 63%
    22:00 +12°C° 0.1 mm 5 mps 743 mmHg 66%
    23:00 +12°C° 0.1 mm 5 mps 743 mmHg 69%

    25 April, Thursday

    Time Temperature Precipitation Wind Pressure Humidity
    00:00 +12°C° 0.1 mm 5 mps 743 mmHg 72%
    01:00 +10°C° 0.4 mm 6 mps 743 mmHg 76%
    02:00 +10°C° 0.4 mm 6 mps 743 mmHg 80%
    03:00 +9°C° 0.4 mm 6 mps 743 mmHg 84%
    04:00 +9°C° 0 mm 6 mps 744 mmHg 82%
    05:00 +9°C° 0 mm 6 mps 744 mmHg 81%
    06:00 +8°C° 0 mm 6 mps 744 mmHg 79%
    07:00 +9°C° 0.2 mm 6 mps 745 mmHg 77%
    08:00 +10°C° 0.2 mm 7 mps 745 mmHg 76%
    09:00 +11°C° 0.2 mm 7 mps 745 mmHg 74%
    10:00 +11°C° 0.4 mm 7 mps 745 mmHg 69%
    11:00 +12°C° 0.4 mm 7 mps 745 mmHg 65%
    12:00 +14°C° 0.4 mm 7 mps 746 mmHg 60%
    13:00 +14°C° 0.4 mm 7 mps 746 mmHg 60%
    14:00 +14°C° 0.4 mm 7 mps 746 mmHg 59%
    15:00 +14°C° 0.4 mm 7 mps 746 mmHg 58%
    16:00 +13°C° 0.4 mm 6 mps 746 mmHg 62%
    17:00 +12°C° 0.4 mm 5 mps 747 mmHg 66%
    18:00 +12°C° 0.4 mm 4 mps 747 mmHg 70%
    19:00 +10°C° 0.2 mm 5 mps 747 mmHg 73%
    20:00 +9°C° 0.2 mm 5 mps 748 mmHg 76%
    21:00 +8°C° 0.2 mm 5 mps 749 mmHg 79%
    22:00 +8°C° 0.1 mm 5 mps 749 mmHg 80%
    23:00 +7°C° 0.1 mm 5 mps 749 mmHg 81%
    Show more